Probability
3 6 97 94 94 90 77 74 71 65 52 52 45 45 48 48 42 39 35 35 35 35 32 29 26 19 16 6 6 3 3 0 0 0 0 0 0 0 0 0 0 0 0
0 19 94 94 94 84 77 74 65 61 55 55 52 48 48 42 35 35 35 35 35 32 19 13 16 13 13 6 3 0 0 0 0 0 0 0 0 0 0 0 0 0 0
13 29 84 94 87 87 77 74 65 61 55 52 48 48 45 42 32 29 29 29 29 19 16 13 13 13 6 3 0 0 0 0 0 0 0 0 0 0 0 0 0 0 0
13 39 61 90 87 84 77 65 58 58 52 52 52 48 45 39 32 29 29 29 23 13 13 13 13 10 6 0 0 0 0 0 0 0 0 0 0 0 0 0 0 0 0
13 35 48 81 84 81 71 65 55 52 52 52 52 48 39 35 32 32 29 29 23 13 13 13 10 6 0 0 0 0 0 0 0 0 0 0 0 0 0 0 0 0 0
10 23 45 74 74 77 74 65 55 48 48 52 52 45 35 32 29 29 32 23 19 13 13 10 6 0 0 0 0 0 0 0 0 0 0 0 0 0 0 0 0 0 0
10 16 39 68 71 74 71 61 52 48 48 48 48 42 42 32 32 29 23 23 13 13 13 6 3 0 0 0 0 0 0 0 0 0 0 0 0 0 0 0 0 0 0
3 19 32 52 61 71 68 58 55 45 48 48 45 42 42 32 32 26 23 23 13 13 6 6 0 0 0 0 0 0 0 0 0 0 0 0 0 0 0 0 0 0 0
3 16 23 39 42 52 48 52 55 48 45 45 42 39 35 29 29 26 23 19 13 6 6 3 0 0 0 0 0 0 0 0 0 0 0 0 0 0 0 0 0 0 0
0 13 13 26 26 26 23 35 42 39 35 42 29 23 19 16 19 23 19 16 10 6 6 0 0 0 0 0 0 0 0 0 0 0 0 0 0 0 0 0 0 0 0
3 3 10 10 16 19 16 16 10 13 16 19 16 16 13 13 16 13 10 3 6 6 0 0 0 0 0 0 0 0 0 0 0 0 0 0 0 0 0 0 0 0 0
3 3 0 6 6 13 13 6 10 10 10 13 10 10 10 10 10 6 0 0 3 0 0 0 0 0 0 0 0 0 0 0 0 0 0 0 0 0 0 0 0 0 0
3 3 3 3 6 6 3 3 6 6 6 3 3 6 6 6 0 0 0 0 0 0 0 0 0 0 0 0 0 0 0 0 0 0 0 0 0 0 0 0 0 0 0
3 3 0 0 0 0 0 0 0 0 3 3 3 3 3 0 0 0 0 0 0 0 0 0 0 0 0 0 0 0 0 0 0 0 0 0 0 0 0 0 0 0 0
3 0 0 0 0 0 0 0 0 0 0 0 0 0 0 0 0 0 0 0 0 0 0 0 0 0 0 0 0 0 0 0 0 0 0 0 0 0 0 0 0 0 0
3 3 0 0 0 0 0 0 0 0 0 0 0 0 0 0 0 0 0 0 0 0 0 0 0 0 0 0 0 0 0 0 0 0 0 0 0 0 0 0 0 0 0
0 3 0 0 0 0 0 0 0 0 0 0 0 0 0 0 0 0 0 0 0 0 0 0 0 0 0 0 0 0 0 0 0 0 0 0 0 0 0 0 0 0 0
0 0 0 0 0 0 0 0 0 0 0 0 0 0 0 0 0 0 0 0 0 0 0 0 0 0 0 0 0 0 0 0 0 0 0 0 0 0 0 0 0 0 0
0 0 0 0 0 0 0 0 0 0 0 0 0 0 0 0 0 0 0 0 0 0 0 0 0 0 0 0 0 0 0 0 0 0 0 0 0 0 0 0 0 0 0
0 0 0 0 0 0 0 0 0 0 0 0 0 0 0 0 0 0 0 0 0 0 0 0 0 0 0 0 0 0 0 0 0 0 0 0 0 0 0 0 0 0 0
0 0 0 0 0 0 0 0 0 0 0 0 0 0 0 0 0 0 0 0 0 0 0 0 0 0 0 0 0 0 0 0 0 0 0 0 0 0 0 0 0 0 0
0 0 0 0 0 0 0 0 0 0 0 0 0 0 0 0 0 0 0 0 0 0 0 0 0 0 0 0 0 0 0 0 0 0 0 0 0 0 0 0 0 0 0
0 0 0 0 0 0 0 0 0 0 0 0 0 0 0 0 0 0 0 0 0 0 0 0 0 0 0 0 0 0 0 0 0 0 0 0 0 0 0 0 0 0 0
0 0 0 0 0 0 0 0 0 0 0 0 0 0 0 0 0 0 0 0 0 0 0 0 0 0 0 0 0 0 0 0 0 0 0 0 0 0 0 0 0 0 0
0 0 0 0 0 0 0 0 0 0 0 0 0 0 0 0 0 0 0 0 0 0 0 0 0 0 0 0 0 0 0 0 0 0 0 0 0 0 0 0 0 0 0
0 0 0 0 0 0 0 0 0 0 0 0 0 0 0 0 0 0 0 0 0 0 0 0 0 0 0 0 0 0 0 0 0 0 0 0 0 0 0 0 0 0 0
Height
5850 5852 5853 5855 5856 5858 5859 5860 5862 5863 5865 5866 5867 5868 5869 5870 5871 5871 5872 5872 5872 5872 5872 5873 5873 5872 5872 5872 5871 5871 5870 5870 5869 5868 5867 5866 5865 5863 5862 5861 5859 5857 5856
5847 5848 5850 5851 5853 5854 5856 5857 5859 5860 5862 5863 5864 5866 5867 5868 5869 5869 5870 5870 5870 5871 5871 5871 5871 5871 5871 5871 5870 5870 5869 5868 5867 5866 5865 5864 5863 5862 5860 5859 5857 5856 5854
5843 5844 5845 5847 5849 5850 5852 5853 5855 5857 5858 5860 5861 5863 5864 5865 5866 5867 5867 5868 5868 5868 5869 5869 5869 5869 5869 5869 5869 5868 5867 5866 5866 5865 5864 5863 5861 5860 5859 5857 5855 5854 5852
5838 5839 5840 5842 5844 5846 5847 5849 5851 5853 5855 5856 5858 5859 5861 5862 5863 5864 5865 5865 5866 5866 5866 5866 5867 5867 5867 5867 5867 5866 5865 5865 5864 5863 5862 5861 5859 5858 5857 5855 5853 5852 5850
5832 5834 5835 5837 5839 5841 5843 5845 5847 5849 5850 5852 5854 5855 5857 5858 5859 5860 5861 5862 5863 5863 5863 5864 5864 5864 5864 5865 5864 5864 5863 5862 5862 5861 5860 5859 5857 5856 5854 5853 5851 5849 5847
5826 5828 5830 5831 5833 5835 5838 5840 5842 5844 5846 5848 5849 5851 5852 5854 5855 5857 5858 5859 5859 5860 5860 5861 5861 5862 5862 5862 5862 5862 5861 5860 5859 5858 5858 5856 5855 5854 5852 5850 5848 5847 5845
5818 5821 5823 5825 5827 5829 5831 5834 5836 5838 5840 5842 5844 5846 5848 5849 5851 5852 5854 5855 5856 5856 5857 5858 5858 5859 5859 5859 5859 5859 5858 5858 5857 5856 5855 5854 5852 5851 5849 5847 5845 5844 5842
5810 5813 5815 5818 5820 5822 5825 5827 5830 5832 5834 5836 5839 5841 5843 5844 5846 5847 5849 5850 5851 5852 5853 5854 5855 5855 5856 5856 5856 5856 5855 5855 5854 5853 5852 5851 5849 5848 5846 5844 5842 5840 5838
5802 5804 5807 5810 5812 5815 5818 5820 5823 5825 5828 5830 5832 5835 5837 5839 5840 5842 5844 5845 5847 5848 5849 5850 5851 5852 5852 5852 5853 5852 5852 5852 5851 5850 5849 5848 5846 5845 5843 5841 5839 5837 5835
5792 5795 5799 5801 5804 5807 5810 5812 5815 5818 5821 5823 5825 5828 5831 5833 5834 5836 5838 5840 5842 5843 5844 5846 5847 5847 5848 5849 5849 5849 5848 5848 5848 5847 5846 5844 5843 5841 5839 5838 5836 5834 5831
5782 5785 5789 5792 5795 5798 5801 5804 5807 5810 5813 5816 5818 5821 5824 5826 5828 5830 5832 5834 5836 5838 5839 5841 5842 5843 5844 5845 5845 5845 5845 5844 5844 5843 5842 5841 5839 5837 5836 5834 5832 5830 5827
5771 5774 5778 5782 5786 5789 5792 5795 5798 5801 5804 5808 5811 5814 5816 5819 5821 5824 5826 5828 5830 5832 5834 5835 5837 5838 5839 5840 5841 5841 5840 5840 5840 5839 5838 5836 5835 5833 5832 5830 5828 5825 5823
5759 5763 5766 5770 5774 5778 5782 5785 5789 5792 5796 5799 5802 5806 5809 5811 5814 5816 5819 5821 5823 5825 5827 5829 5831 5833 5834 5835 5836 5836 5836 5836 5835 5835 5833 5832 5831 5829 5827 5825 5823 5821 5818
5746 5750 5754 5757 5761 5766 5770 5774 5778 5782 5786 5790 5793 5797 5800 5803 5806 5809 5811 5814 5816 5819 5821 5823 5825 5827 5828 5830 5831 5831 5831 5831 5830 5830 5829 5828 5826 5824 5823 5821 5818 5816 5813
5732 5737 5741 5744 5748 5753 5757 5762 5766 5771 5775 5779 5783 5787 5791 5794 5798 5801 5804 5806 5809 5811 5814 5816 5819 5821 5822 5824 5825 5825 5826 5826 5825 5825 5824 5823 5821 5820 5818 5816 5813 5811 5808
5716 5721 5726 5730 5734 5739 5744 5748 5754 5759 5763 5768 5772 5777 5781 5785 5789 5792 5796 5798 5801 5804 5807 5810 5812 5814 5816 5817 5819 5820 5820 5820 5820 5819 5818 5817 5816 5814 5812 5810 5808 5806 5803
5700 5705 5710 5714 5719 5723 5729 5734 5740 5745 5751 5756 5761 5766 5770 5775 5779 5783 5787 5791 5794 5797 5800 5802 5804 5807 5809 5811 5812 5813 5814 5814 5814 5814 5813 5812 5810 5809 5807 5805 5803 5800 5797
5683 5688 5693 5698 5702 5707 5713 5718 5724 5730 5736 5743 5749 5754 5760 5764 5769 5774 5778 5782 5785 5789 5792 5794 5797 5800 5802 5804 5806 5807 5808 5808 5808 5808 5807 5806 5805 5803 5801 5799 5797 5794 5791
5667 5672 5676 5681 5686 5691 5696 5702 5708 5715 5721 5729 5735 5742 5748 5754 5759 5764 5768 5773 5777 5780 5783 5786 5790 5792 5795 5797 5799 5800 5801 5802 5802 5802 5801 5800 5799 5797 5795 5793 5791 5788 5785
5653 5656 5661 5666 5670 5675 5680 5685 5691 5698 5706 5714 5721 5729 5736 5742 5748 5753 5759 5763 5767 5771 5775 5778 5781 5784 5787 5789 5791 5792 5794 5795 5795 5795 5795 5794 5793 5791 5789 5787 5785 5782 5779
5638 5641 5646 5651 5655 5659 5664 5670 5676 5683 5691 5699 5707 5715 5723 5730 5736 5742 5748 5753 5757 5761 5765 5769 5773 5776 5778 5781 5783 5785 5786 5787 5788 5788 5788 5787 5786 5785 5783 5781 5778 5775 5772
5626 5629 5632 5637 5641 5645 5650 5656 5662 5669 5676 5685 5693 5701 5709 5717 5723 5730 5737 5743 5748 5752 5756 5760 5764 5767 5770 5773 5776 5777 5779 5780 5781 5781 5781 5780 5779 5778 5776 5774 5771 5769 5766
5615 5617 5620 5624 5628 5633 5638 5643 5649 5654 5662 5670 5678 5687 5696 5704 5711 5718 5725 5732 5737 5742 5747 5751 5754 5759 5762 5765 5767 5770 5771 5773 5773 5774 5774 5773 5772 5771 5769 5767 5764 5761 5758
5604 5606 5609 5613 5617 5622 5626 5631 5636 5642 5650 5659 5667 5675 5683 5691 5698 5706 5713 5720 5726 5732 5737 5741 5745 5749 5753 5756 5759 5762 5764 5765 5766 5766 5766 5766 5765 5763 5762 5760 5757 5754 5751
5594 5596 5600 5604 5607 5611 5616 5620 5625 5631 5639 5647 5655 5663 5671 5678 5686 5694 5702 5709 5715 5721 5727 5731 5735 5739 5744 5747 5751 5753 5755 5757 5757 5758 5758 5758 5757 5756 5754 5752 5750 5747 5743
5586 5588 5591 5595 5598 5602 5606 5610 5614 5620 5627 5635 5643 5651 5659 5667 5675 5683 5691 5698 5705 5711 5717 5721 5726 5730 5734 5739 5742 5744 5746 5748 5749 5750 5750 5749 5749 5748 5746 5744 5741 5739 5736
Wind_Speed
20 20 20 21 21 21 21 21 21 21 21 20 19 18 17 16 15 15 14 14 13 13 12 12 11 11 11 10 10 10 9 9 10 10 10 10 10 11 11 12 12 13 14
21 21 21 22 22 23 22 22 22 22 22 22 21 20 19 18 17 17 16 16 15 15 14 13 13 13 12 12 11 11 11 11 11 12 11 11 12 12 13 13 14 14 15
23 22 23 23 23 24 24 24 24 24 24 24 23 22 22 21 20 19 18 17 17 17 16 15 15 14 13 13 12 12 12 12 13 13 12 12 13 14 14 14 15 15 15
25 25 25 25 25 25 26 26 26 26 26 26 25 25 24 23 22 21 20 19 19 18 17 17 16 15 15 14 14 13 13 13 13 13 13 14 14 15 15 15 16 16 17
27 27 27 28 27 27 27 28 28 27 27 27 27 27 26 25 24 23 22 21 20 20 19 18 17 17 16 16 15 15 15 15 15 14 14 15 15 16 16 16 17 17 18
30 30 30 30 30 30 29 29 29 29 29 29 29 28 28 27 26 25 24 23 22 22 21 21 20 19 18 17 17 16 16 16 16 15 16 16 17 17 17 18 18 18 19
33 32 32 32 33 32 32 32 32 31 31 31 31 30 30 29 29 27 26 25 24 23 23 22 22 20 19 19 18 17 17 16 17 17 17 17 18 19 19 19 19 20 20
37 36 35 35 35 34 34 34 34 34 33 33 33 32 32 31 30 29 28 27 26 25 25 24 23 22 21 20 19 19 18 17 18 18 18 19 19 20 20 20 20 20 21
40 39 38 38 37 37 36 36 36 36 35 35 35 34 34 33 33 31 30 30 28 27 26 25 25 24 22 22 21 20 19 19 19 20 20 20 20 20 20 21 21 22 22
43 42 41 40 40 40 39 39 38 38 37 37 37 36 36 35 34 33 32 31 31 29 28 27 26 25 24 23 22 21 21 21 21 21 21 21 21 21 21 22 22 23 24
45 44 44 43 43 42 42 41 41 40 39 39 38 38 38 37 36 35 34 33 32 31 30 29 27 27 26 25 24 23 23 22 22 22 22 22 22 23 23 23 23 24 25
47 47 47 46 45 45 45 44 43 43 42 41 40 40 39 38 38 36 36 35 33 32 31 30 29 28 27 26 25 25 24 24 23 24 23 23 24 24 24 24 25 25 27
49 49 49 49 48 48 48 47 47 46 45 44 43 42 41 40 39 38 37 36 35 34 33 32 30 29 28 28 27 26 26 25 25 25 25 25 25 25 25 26 26 27 28
51 51 51 51 51 50 50 50 49 49 48 46 45 44 43 42 41 39 39 38 37 35 34 33 32 31 30 29 28 28 27 27 26 26 25 26 26 26 27 27 27 28 29
53 53 52 53 53 53 53 52 52 51 51 49 47 46 45 44 42 41 40 39 38 37 35 34 33 33 32 31 30 29 29 28 27 27 27 27 27 27 27 28 28 29 30
55 55 55 55 56 56 55 54 53 53 53 52 50 48 48 46 44 42 41 41 39 38 37 36 35 34 33 32 31 30 30 29 28 28 28 28 28 28 28 29 29 29 30
55 56 55 56 57 57 57 57 56 55 55 54 53 51 49 47 46 45 43 42 41 40 39 38 36 35 35 34 33 32 31 30 30 29 29 29 29 29 29 29 30 30 31
53 55 56 57 57 57 58 59 58 57 57 56 55 53 52 50 48 46 45 44 43 42 41 40 38 37 36 35 34 33 32 31 30 30 30 30 30 29 30 30 31 31 32
50 53 54 54 56 57 58 58 59 59 58 57 56 55 54 52 50 49 47 46 44 44 42 41 40 39 37 36 35 34 34 32 31 31 31 31 31 31 31 31 32 32 33
48 49 51 52 53 54 55 56 58 58 59 58 58 57 55 54 52 50 48 47 46 45 45 43 42 41 39 37 37 35 35 34 32 31 32 32 32 32 32 32 33 33 34
46 47 48 50 50 51 52 54 56 57 57 58 58 58 56 55 54 52 50 48 47 46 46 45 44 42 41 39 38 37 35 35 33 33 33 33 33 33 33 34 34 34 35
42 44 46 48 49 49 50 51 53 55 56 57 57 57 57 57 56 53 51 50 48 46 46 46 46 44 43 41 39 38 36 36 35 34 33 33 34 34 34 34 35 35 36
38 41 42 44 45 44 47 50 52 53 55 56 56 56 56 57 57 54 53 51 50 47 48 48 46 45 43 42 40 38 37 36 35 34 34 34 34 35 35 35 36 37 37
35 38 40 42 41 42 44 48 51 52 53 54 55 55 54 56 57 55 53 52 52 49 48 48 47 46 45 43 40 39 38 37 36 35 35 35 35 35 36 36 36 37 38
33 36 39 40 41 41 43 45 47 49 51 52 53 54 54 54 56 55 53 52 51 50 47 48 48 46 45 43 40 39 39 38 37 36 36 36 36 36 36 36 37 38 38
32 34 36 37 39 40 41 44 44 45 49 52 54 53 53 54 54 54 53 52 51 51 49 49 49 46 44 43 42 41 40 39 37 37 37 36 36 36 36 37 38 38 39
Wind_Direction
246 243 240 239 239 240 241 241 242 243 246 247 248 249 251 252 253 254 256 259 258 258 260 263 266 271 279 286 292 294 296 297 299 302 301 303 307 310 312 315 316 317 319
247 247 244 241 241 241 241 242 242 243 245 247 248 249 250 252 254 255 256 259 258 258 260 262 265 269 275 280 286 289 289 293 295 298 297 299 303 306 309 311 313 314 317
246 245 245 243 242 241 241 242 243 244 244 246 247 248 250 252 253 255 257 258 258 257 258 260 264 268 272 277 283 286 286 291 294 296 294 296 301 303 306 309 310 312 313
246 245 244 244 243 242 242 242 242 243 244 245 246 247 249 251 253 254 256 258 258 257 257 258 262 266 270 275 281 283 284 289 292 293 293 295 299 301 303 306 307 309 310
247 246 245 244 244 243 243 243 243 243 244 244 245 246 248 250 252 254 255 256 257 257 256 257 259 263 267 273 278 280 282 286 289 291 291 293 296 298 301 303 304 306 309
247 247 246 246 245 245 245 245 245 244 244 245 245 246 246 248 251 253 254 255 256 256 256 256 258 261 265 270 275 278 280 284 287 290 290 292 294 297 298 300 302 304 307
248 247 246 245 245 245 245 245 246 245 245 245 245 246 246 247 249 252 253 254 255 255 255 255 257 259 263 268 272 276 278 281 285 288 290 291 293 296 298 299 300 303 305
249 248 247 246 246 246 245 245 246 246 245 245 245 246 247 247 249 250 252 253 255 255 254 255 256 258 262 266 270 274 276 279 283 286 289 291 293 295 297 298 300 302 304
249 248 247 247 246 246 245 245 246 246 245 245 245 245 246 247 248 250 251 252 254 254 254 254 255 258 261 265 269 272 274 276 280 285 288 291 293 295 297 299 300 302 304
250 248 247 247 247 247 246 245 245 246 246 245 245 244 245 247 248 250 251 252 252 253 253 253 254 257 260 263 267 270 273 276 279 283 287 290 292 294 297 299 300 302 303
250 249 248 247 247 246 247 246 246 245 245 245 245 244 245 246 247 249 250 251 251 252 252 252 254 256 259 261 265 269 272 275 279 282 286 288 291 293 296 299 301 302 303
249 249 249 248 247 246 246 246 246 245 245 245 245 244 244 245 246 248 249 250 250 251 251 251 253 256 258 260 263 267 270 274 278 281 284 287 290 292 294 297 300 302 303
248 248 249 248 247 246 246 246 245 245 245 245 244 244 244 244 245 247 248 249 249 250 250 251 252 255 258 259 262 265 269 273 277 280 282 286 288 291 293 295 298 301 303
246 246 247 248 247 246 246 245 244 243 243 244 244 244 244 244 245 245 247 247 248 249 250 250 251 253 256 259 262 264 268 272 276 279 281 284 287 290 292 294 297 301 303
246 246 246 247 246 246 245 244 244 243 242 242 242 243 243 243 244 244 245 246 246 247 248 249 250 252 255 257 261 263 267 270 274 278 280 283 286 289 291 294 297 300 302
246 246 246 245 245 245 244 243 243 242 242 242 241 241 242 242 242 242 243 245 245 246 248 250 250 251 253 256 259 262 266 268 272 276 279 282 285 288 291 294 297 300 302
247 246 245 245 245 244 243 243 242 242 241 240 240 240 240 240 240 241 241 243 243 244 246 248 249 250 252 255 258 261 265 267 270 274 278 280 284 287 291 294 296 299 301
247 246 245 244 244 244 243 242 241 241 240 239 239 238 238 238 239 239 239 242 242 243 245 245 248 250 251 254 257 260 263 266 269 273 276 279 283 287 290 293 296 298 300
247 246 245 244 243 243 242 241 240 239 238 237 236 236 236 237 237 238 238 240 242 242 242 244 246 249 251 252 256 258 261 265 269 272 276 279 282 285 289 292 295 297 299
248 246 244 243 242 242 241 239 238 237 236 235 235 235 234 234 235 236 237 238 240 242 242 242 244 247 249 252 254 257 260 263 267 271 275 278 281 284 288 290 294 296 299
247 247 244 242 240 239 238 237 236 235 234 233 233 232 232 232 234 235 235 236 238 240 241 241 242 245 249 251 254 257 260 262 265 269 274 277 280 284 286 289 292 296 298
249 246 243 241 240 239 236 236 236 234 233 232 230 230 229 230 231 231 233 235 236 238 240 241 241 244 248 250 253 256 259 261 264 268 272 276 279 282 286 289 292 294 297
248 245 242 239 238 238 237 235 235 233 232 230 228 227 227 229 230 230 231 233 234 237 241 241 241 243 247 249 252 255 258 260 263 266 271 275 279 282 285 288 291 294 296
248 243 240 238 238 237 237 235 234 233 232 231 228 226 226 228 229 229 230 232 233 235 239 240 240 242 246 248 251 254 257 260 263 266 270 274 278 281 284 288 291 293 296
249 244 240 239 238 237 236 235 234 233 231 228 226 225 225 226 228 228 229 230 231 233 237 239 240 242 245 248 251 254 256 259 262 265 269 274 277 280 283 287 289 292 295
249 244 240 238 240 239 237 235 234 233 230 227 226 224 225 226 227 228 228 229 231 233 236 239 240 242 244 247 250 253 256 258 261 264 268 273 276 279 282 286 288 291 295